Погода в Тукане

Россия / Республика Башкортостан     53°50′15″N   57°27′02″E
темп.,
°C
ветер,
м/с
пор.,
м/с
влажн.,
%
обл.,
%
осадки,
мм/ч
давл.,
гПа
погр.,
м
11 апреля, вс
вс1123:00+4юв239987 0.0 1035103
02:00+4юв2494100 0.0 1034208
05:00+1юв229749 0.0 103639
08:00+2юв2384100 0.0 1036103
11:00+9ююв25605 0.0 1034350
14:00+13ю34531 0.0 1033569
17:00+13ю35575 0.0 1032536
20:00+8ююв228413 0.0 103414
12 апреля, пн
пн1223:00+5ююв118731 0.0 103510
02:00+4ю22855 0.0 103610
05:00+3ююв228020 0.0 103611
08:00+5ю017232 0.0 103722
11:00+12ссв114940 0.0 1035367
14:00+15св113966 0.0 1034850
17:00+16св113842 0.0 10341135
20:00+11в22735 0.0 103521
13 апреля, вт
вт1323:00+8в11885 0.0 103613
02:00+6вюв219329 0.0 103714
05:00+4вюв21935 0.0 103914
08:00+6вюв128934 0.0 103996
11:00+10юв23687 0.0 1038662
14:00+13юв225565 0.0 1036955
17:00+13юв225513 0.0 10351045
20:00+9ююв22794 0.0 103522
14 апреля, ср
ср1423:00+7ююв21935 0.0 103616
02:00+5ююв11955 0.0 103511
05:00+4юв11945 0.0 103510
08:00+6в01875 0.0 103450
11:00+12в12585 0.0 1031525
14:00+16юв12395 0.0 10291059
17:00+17ююз11382 0.0 10271385
20:00+12ю11574 0.0 102610
15 апреля, чт
чт1523:00+9ю11745 0.0 102610
02:00+7ю11825 0.0 102510
05:00+6юв11860 0.0 102510
08:00+8всв11780 0.0 102437
11:00+14всв11530 0.0 1022578
14:00+18ю11411 0.0 10201352
17:00+18ююз11343 0.0 10181822
20:00+13ююз22461 0.0 101717